Year,Month,Day,Hour,Minute,Value (Times are PST for windspeed in km/hr)
2019,10,25,00,00,2.20
2019,10,25,00,01,0.20
2019,10,25,00,02,0.00
2019,10,25,00,03,0.00
2019,10,25,00,04,0.40
2019,10,25,00,05,1.00
2019,10,25,00,06,2.40
2019,10,25,00,07,1.50
2019,10,25,00,08,0.10
2019,10,25,00,09,0.00
2019,10,25,00,10,1.10
2019,10,25,00,11,1.00
2019,10,25,00,12,0.00
2019,10,25,00,13,0.20
2019,10,25,00,14,2.90
2019,10,25,00,15,1.80
2019,10,25,00,16,2.10
2019,10,25,00,17,1.00
2019,10,25,00,18,3.60
2019,10,25,00,19,2.20
2019,10,25,00,20,3.00
2019,10,25,00,21,0.50
2019,10,25,00,22,1.40
2019,10,25,00,23,0.20
2019,10,25,00,24,1.00
2019,10,25,00,25,2.00
2019,10,25,00,26,0.60
2019,10,25,00,27,2.10
2019,10,25,00,28,1.10
2019,10,25,00,29,2.20
2019,10,25,00,30,0.90
2019,10,25,00,31,1.50
2019,10,25,00,32,2.40
2019,10,25,00,33,3.10
2019,10,25,00,34,2.40
2019,10,25,00,35,3.60
2019,10,25,00,36,3.00
2019,10,25,00,37,4.40
2019,10,25,00,38,3.20
2019,10,25,00,39,3.20
2019,10,25,00,40,3.20
2019,10,25,00,41,3.20
2019,10,25,00,42,3.20
2019,10,25,00,43,0.60
2019,10,25,00,44,1.00
2019,10,25,00,45,2.40
2019,10,25,00,46,3.30
2019,10,25,00,47,1.90
2019,10,25,00,48,2.90
2019,10,25,00,49,1.90
2019,10,25,00,50,1.10
2019,10,25,00,51,1.80
2019,10,25,00,52,2.00
2019,10,25,00,53,1.20
2019,10,25,00,54,1.60
2019,10,25,00,55,0.20
2019,10,25,00,56,0.40
2019,10,25,00,57,1.60
2019,10,25,00,58,0.00
2019,10,25,00,59,2.60
2019,10,25,01,00,1.10
2019,10,25,01,01,3.00
2019,10,25,01,02,3.60
2019,10,25,01,03,3.60
2019,10,25,01,04,2.40
2019,10,25,01,05,0.40
2019,10,25,01,06,1.20
2019,10,25,01,07,1.00
2019,10,25,01,08,1.50
2019,10,25,01,09,0.10
2019,10,25,01,10,0.70
2019,10,25,01,11,1.00
2019,10,25,01,12,0.80
2019,10,25,01,13,0.90
2019,10,25,01,14,0.10
2019,10,25,01,15,0.00
2019,10,25,01,16,0.00
2019,10,25,01,17,0.20
2019,10,25,01,18,0.70
2019,10,25,01,19,1.30
2019,10,25,01,20,2.20
2019,10,25,01,21,3.40
2019,10,25,01,22,2.60
2019,10,25,01,23,1.00
2019,10,25,01,24,0.00
2019,10,25,01,25,0.50
2019,10,25,01,26,2.60
2019,10,25,01,27,2.90
2019,10,25,01,28,1.40
2019,10,25,01,29,2.90
2019,10,25,01,30,2.20
2019,10,25,01,31,0.40
2019,10,25,01,32,0.70
2019,10,25,01,33,2.10
2019,10,25,01,34,2.00
2019,10,25,01,35,2.30
2019,10,25,01,36,2.20
2019,10,25,01,37,2.60
2019,10,25,01,38,2.30
2019,10,25,01,39,2.40
2019,10,25,01,40,0.70
2019,10,25,01,41,0.00
2019,10,25,01,42,0.00
2019,10,25,01,43,0.00
2019,10,25,01,44,1.00
2019,10,25,01,45,0.20
2019,10,25,01,46,0.00
2019,10,25,01,47,0.00
2019,10,25,01,48,0.00
2019,10,25,01,49,0.00
2019,10,25,01,50,0.00
2019,10,25,01,51,0.00
2019,10,25,01,52,0.00
2019,10,25,01,53,0.00
2019,10,25,01,54,0.00
2019,10,25,01,55,0.00
2019,10,25,01,56,0.40
2019,10,25,01,57,2.00
2019,10,25,01,58,0.40
2019,10,25,01,59,0.10
2019,10,25,02,00,0.00
2019,10,25,02,01,0.70
2019,10,25,02,02,0.20
2019,10,25,02,03,0.00
2019,10,25,02,04,0.00
2019,10,25,02,05,0.00
2019,10,25,02,06,0.00
2019,10,25,02,07,0.00
2019,10,25,02,08,0.20
2019,10,25,02,09,1.00
2019,10,25,02,10,1.90
2019,10,25,02,11,0.50
2019,10,25,02,12,1.10
2019,10,25,02,13,0.50
2019,10,25,02,14,0.60
2019,10,25,02,15,1.40
2019,10,25,02,16,2.00
2019,10,25,02,17,3.30
2019,10,25,02,18,2.00
2019,10,25,02,19,2.50
2019,10,25,02,20,2.60
2019,10,25,02,21,1.70
2019,10,25,02,22,0.40
2019,10,25,02,23,1.70
2019,10,25,02,24,1.00
2019,10,25,02,25,1.70
2019,10,25,02,26,2.00
2019,10,25,02,27,1.50
2019,10,25,02,28,2.10
2019,10,25,02,29,3.00
2019,10,25,02,30,3.70
2019,10,25,02,31,2.10
2019,10,25,02,32,2.70
2019,10,25,02,33,3.10
2019,10,25,02,34,3.20
2019,10,25,02,35,2.60
2019,10,25,02,36,1.40
2019,10,25,02,37,2.70
2019,10,25,02,38,2.10
2019,10,25,02,39,3.50
2019,10,25,02,40,2.60
2019,10,25,02,41,4.30
2019,10,25,02,42,2.70
2019,10,25,02,43,2.00
2019,10,25,02,44,2.00
2019,10,25,02,45,2.10
2019,10,25,02,46,1.00
2019,10,25,02,47,4.30
2019,10,25,02,48,3.10
2019,10,25,02,49,3.70
2019,10,25,02,50,3.10
2019,10,25,02,51,3.30
2019,10,25,02,52,1.90
2019,10,25,02,53,2.90
2019,10,25,02,54,2.60
2019,10,25,02,55,2.70
2019,10,25,02,56,1.80
2019,10,25,02,57,0.40
2019,10,25,02,58,1.30
2019,10,25,02,59,0.00
2019,10,25,03,00,0.00
2019,10,25,03,01,0.00
2019,10,25,03,02,1.10
2019,10,25,03,03,1.60
2019,10,25,03,04,1.10
2019,10,25,03,05,0.80
2019,10,25,03,06,3.00
2019,10,25,03,07,2.40
2019,10,25,03,08,0.50
2019,10,25,03,09,1.00
2019,10,25,03,10,2.40
2019,10,25,03,11,5.40
2019,10,25,03,12,4.20
2019,10,25,03,13,0.70
2019,10,25,03,14,0.00
2019,10,25,03,15,0.00
2019,10,25,03,16,1.40
2019,10,25,03,17,0.50
2019,10,25,03,18,0.10
2019,10,25,03,19,0.00
2019,10,25,03,20,0.40
2019,10,25,03,21,0.00
2019,10,25,03,22,0.80
2019,10,25,03,23,3.80
2019,10,25,03,24,3.90
2019,10,25,03,25,0.80
2019,10,25,03,26,0.90
2019,10,25,03,27,1.70
2019,10,25,03,28,1.10
2019,10,25,03,29,0.70
2019,10,25,03,30,1.10
2019,10,25,03,31,3.80
2019,10,25,03,32,0.70
2019,10,25,03,33,0.90
2019,10,25,03,34,2.60
2019,10,25,03,35,4.40
2019,10,25,03,36,1.70
2019,10,25,03,37,0.00
2019,10,25,03,38,1.90
2019,10,25,03,39,5.40
2019,10,25,03,40,5.00
2019,10,25,03,41,2.60
2019,10,25,03,42,7.30
2019,10,25,03,43,2.40
2019,10,25,03,44,1.70
2019,10,25,03,45,2.40
2019,10,25,03,46,2.80
2019,10,25,03,47,1.10
2019,10,25,03,48,0.70
2019,10,25,03,49,0.70
2019,10,25,03,50,1.10
2019,10,25,03,51,2.10
2019,10,25,03,52,1.10
2019,10,25,03,53,0.00
2019,10,25,03,54,0.00
2019,10,25,03,55,0.00
2019,10,25,03,56,0.00
2019,10,25,03,57,0.00
2019,10,25,03,58,0.00
2019,10,25,03,59,0.00
2019,10,25,04,00,1.10
2019,10,25,04,01,3.50
2019,10,25,04,02,5.40
2019,10,25,04,03,3.00
2019,10,25,04,04,2.10
2019,10,25,04,05,2.50
2019,10,25,04,06,0.00
2019,10,25,04,07,0.60
2019,10,25,04,08,3.50
2019,10,25,04,09,2.10
2019,10,25,04,10,4.50
2019,10,25,04,11,0.30
2019,10,25,04,12,0.60
2019,10,25,04,13,0.10
2019,10,25,04,14,0.00
2019,10,25,04,15,0.10
2019,10,25,04,16,0.10
2019,10,25,04,17,0.00
2019,10,25,04,18,0.00
2019,10,25,04,19,0.00
2019,10,25,04,20,1.20
2019,10,25,04,21,4.60
2019,10,25,04,22,1.60
2019,10,25,04,23,0.00
2019,10,25,04,24,0.10
2019,10,25,04,25,0.10
2019,10,25,04,26,4.30
2019,10,25,04,27,4.60
2019,10,25,04,28,5.60
2019,10,25,04,29,6.70
2019,10,25,04,30,5.20
2019,10,25,04,31,8.00
2019,10,25,04,32,6.90
2019,10,25,04,33,4.20
2019,10,25,04,34,4.90
2019,10,25,04,35,5.90
2019,10,25,04,36,6.30
2019,10,25,04,37,5.50
2019,10,25,04,38,5.40
2019,10,25,04,39,3.40
2019,10,25,04,40,5.80
2019,10,25,04,41,6.30
2019,10,25,04,42,5.10
2019,10,25,04,43,3.40
2019,10,25,04,44,1.80
2019,10,25,04,45,0.50
2019,10,25,04,46,0.50
2019,10,25,04,47,0.00
2019,10,25,04,48,0.00
2019,10,25,04,49,0.00
2019,10,25,04,50,0.00
2019,10,25,04,51,0.00
2019,10,25,04,52,0.00
2019,10,25,04,53,0.00
2019,10,25,04,54,0.00
2019,10,25,04,55,0.00
2019,10,25,04,56,0.00
2019,10,25,04,57,0.00
2019,10,25,04,58,0.00
2019,10,25,04,59,0.00
2019,10,25,05,00,0.20
2019,10,25,05,01,2.60
2019,10,25,05,02,2.30
2019,10,25,05,03,2.90
2019,10,25,05,04,3.50
2019,10,25,05,05,4.20
2019,10,25,05,06,3.60
2019,10,25,05,07,4.50
2019,10,25,05,08,4.70
2019,10,25,05,09,5.20
2019,10,25,05,10,6.60
2019,10,25,05,11,8.10
2019,10,25,05,12,10.90
2019,10,25,05,13,9.80
2019,10,25,05,14,7.70
2019,10,25,05,15,9.80
2019,10,25,05,16,9.80
2019,10,25,05,17,9.00
2019,10,25,05,18,15.20
2019,10,25,05,19,7.60
2019,10,25,05,20,7.20
2019,10,25,05,21,9.10
2019,10,25,05,22,3.60
2019,10,25,05,23,3.80
2019,10,25,05,24,6.40
2019,10,25,05,25,5.70
2019,10,25,05,26,8.90
2019,10,25,05,27,5.20
2019,10,25,05,28,4.90
2019,10,25,05,29,8.70
2019,10,25,05,30,8.40
2019,10,25,05,31,11.00
2019,10,25,05,32,8.90
2019,10,25,05,33,3.30
2019,10,25,05,34,2.80
2019,10,25,05,35,6.90
2019,10,25,05,36,4.90
2019,10,25,05,37,4.10
2019,10,25,05,38,4.30
2019,10,25,05,39,3.30
2019,10,25,05,40,4.80
2019,10,25,05,41,11.10
2019,10,25,05,42,6.10
2019,10,25,05,43,7.90
2019,10,25,05,44,6.30
2019,10,25,05,45,6.00
2019,10,25,05,46,3.60
2019,10,25,05,47,5.80
2019,10,25,05,48,11.40
2019,10,25,05,49,9.40
2019,10,25,05,50,11.70
2019,10,25,05,51,4.80
2019,10,25,05,52,10.10
2019,10,25,05,53,9.80
2019,10,25,05,54,8.90
2019,10,25,05,55,4.70
2019,10,25,05,56,5.80
2019,10,25,05,57,4.50
2019,10,25,05,58,5.30
2019,10,25,05,59,7.70
2019,10,25,06,00,7.90
2019,10,25,06,01,4.50
2019,10,25,06,02,6.70
2019,10,25,06,03,5.90
2019,10,25,06,04,5.40
2019,10,25,06,05,6.90
2019,10,25,06,06,4.60
2019,10,25,06,07,5.60
2019,10,25,06,08,6.00
2019,10,25,06,09,6.70
2019,10,25,06,10,7.50
2019,10,25,06,11,7.70
2019,10,25,06,12,6.20
2019,10,25,06,13,3.00
2019,10,25,06,14,4.70
2019,10,25,06,15,8.60
2019,10,25,06,16,4.60
2019,10,25,06,17,7.40
2019,10,25,06,18,9.60
2019,10,25,06,19,5.70
2019,10,25,06,20,3.00
2019,10,25,06,21,3.50
2019,10,25,06,22,1.70
2019,10,25,06,23,2.10
2019,10,25,06,24,2.00
2019,10,25,06,25,0.10
2019,10,25,06,26,0.00
2019,10,25,06,27,0.00
2019,10,25,06,28,1.10
2019,10,25,06,29,3.10
2019,10,25,06,30,5.20
2019,10,25,06,31,2.60
2019,10,25,06,32,3.10
2019,10,25,06,33,2.20
2019,10,25,06,34,3.30
2019,10,25,06,35,2.40
2019,10,25,06,36,1.40
2019,10,25,06,37,0.00
2019,10,25,06,38,2.90
2019,10,25,06,39,2.40
2019,10,25,06,40,1.90
2019,10,25,06,41,3.20
2019,10,25,06,42,3.40
2019,10,25,06,43,2.30
2019,10,25,06,44,0.00
2019,10,25,06,45,2.00
2019,10,25,06,46,1.80
2019,10,25,06,47,0.10
2019,10,25,06,48,2.30
2019,10,25,06,49,1.60
2019,10,25,06,50,2.20
2019,10,25,06,51,0.00
2019,10,25,06,52,0.00
2019,10,25,06,53,0.40
2019,10,25,06,54,0.00
2019,10,25,06,55,1.00
2019,10,25,06,56,2.70
2019,10,25,06,57,2.40
2019,10,25,06,58,1.40
2019,10,25,06,59,1.40
2019,10,25,07,00,1.70
2019,10,25,07,01,2.30
2019,10,25,07,02,3.20
2019,10,25,07,03,3.20
2019,10,25,07,04,2.70
2019,10,25,07,05,4.80
2019,10,25,07,06,5.30
2019,10,25,07,07,2.40
2019,10,25,07,08,5.10
2019,10,25,07,09,6.50
2019,10,25,07,10,9.80
2019,10,25,07,11,8.30
2019,10,25,07,12,6.00
2019,10,25,07,13,2.00
2019,10,25,07,14,3.60
2019,10,25,07,15,2.70
2019,10,25,07,16,5.50
2019,10,25,07,17,2.20
2019,10,25,07,18,3.80
2019,10,25,07,19,5.30
2019,10,25,07,20,4.50
2019,10,25,07,21,3.40
2019,10,25,07,22,5.80
2019,10,25,07,23,0.20
2019,10,25,07,24,1.30
2019,10,25,07,25,2.20
2019,10,25,07,26,1.80
2019,10,25,07,27,0.10
2019,10,25,07,28,0.50
2019,10,25,07,29,0.50
2019,10,25,07,30,1.90
2019,10,25,07,31,1.50
2019,10,25,07,32,4.90
2019,10,25,07,33,5.70
2019,10,25,07,34,4.30
2019,10,25,07,35,4.00
2019,10,25,07,36,4.30
2019,10,25,07,37,7.50
2019,10,25,07,38,6.60
2019,10,25,07,39,5.70
2019,10,25,07,40,5.20
2019,10,25,07,41,3.60
2019,10,25,07,42,4.60
2019,10,25,07,43,3.90
2019,10,25,07,44,5.70
2019,10,25,07,45,3.70
2019,10,25,07,46,2.00
2019,10,25,07,47,4.40
2019,10,25,07,48,4.00
2019,10,25,07,49,2.40
2019,10,25,07,50,4.20
2019,10,25,07,51,5.90
2019,10,25,07,52,6.60
2019,10,25,07,53,4.90
2019,10,25,07,54,3.90
2019,10,25,07,55,4.90
2019,10,25,07,56,5.20
2019,10,25,07,57,6.40
2019,10,25,07,58,4.00
2019,10,25,07,59,6.10
2019,10,25,08,00,5.80
2019,10,25,08,01,3.80
2019,10,25,08,02,6.10
2019,10,25,08,03,3.60
2019,10,25,08,04,7.80
2019,10,25,08,05,11.90
2019,10,25,08,06,8.50
2019,10,25,08,07,8.50
2019,10,25,08,08,9.00
2019,10,25,08,09,11.20
2019,10,25,08,10,2.30
2019,10,25,08,11,2.20
2019,10,25,08,12,9.00
2019,10,25,08,13,8.90
2019,10,25,08,14,12.30
2019,10,25,08,15,9.10
2019,10,25,08,16,7.20
2019,10,25,08,17,19.80
2019,10,25,08,18,9.50
2019,10,25,08,19,9.30
2019,10,25,08,20,6.60
2019,10,25,08,21,4.40
2019,10,25,08,22,2.60
2019,10,25,08,23,3.30
2019,10,25,08,24,15.00
2019,10,25,08,25,5.20
2019,10,25,08,26,0.80
2019,10,25,08,27,4.50
2019,10,25,08,28,4.60
2019,10,25,08,29,4.10
2019,10,25,08,30,4.60
2019,10,25,08,31,6.90
2019,10,25,08,32,7.90
2019,10,25,08,33,5.20
2019,10,25,08,34,4.00
2019,10,25,08,35,1.40
2019,10,25,08,36,4.40
2019,10,25,08,37,4.00
2019,10,25,08,38,8.30
2019,10,25,08,39,4.60
2019,10,25,08,40,3.30
2019,10,25,08,41,4.10
2019,10,25,08,42,6.00
2019,10,25,08,43,3.60
2019,10,25,08,44,3.70
2019,10,25,08,45,2.30
2019,10,25,08,46,6.30
2019,10,25,08,47,6.90
2019,10,25,08,48,3.20
2019,10,25,08,49,4.60
2019,10,25,08,50,6.00
2019,10,25,08,51,3.20
2019,10,25,08,52,7.20
2019,10,25,08,53,7.20
2019,10,25,08,54,7.10
2019,10,25,08,55,1.90
2019,10,25,08,56,3.80
2019,10,25,08,57,4.00
2019,10,25,08,58,3.30
2019,10,25,08,59,5.70
2019,10,25,09,00,5.40
2019,10,25,09,01,3.90
2019,10,25,09,02,4.60
2019,10,25,09,03,4.40
2019,10,25,09,04,4.50
2019,10,25,09,05,4.50
2019,10,25,09,06,8.00
2019,10,25,09,07,5.40
2019,10,25,09,08,5.00
2019,10,25,09,09,4.50
2019,10,25,09,10,9.20
2019,10,25,09,11,3.90
2019,10,25,09,12,8.60
2019,10,25,09,13,5.10
2019,10,25,09,14,7.90
2019,10,25,09,15,1.60
2019,10,25,09,16,5.00
2019,10,25,09,17,8.20
2019,10,25,09,18,5.60
2019,10,25,09,19,3.20
2019,10,25,09,20,6.10
2019,10,25,09,21,3.60
2019,10,25,09,22,2.50
2019,10,25,09,23,10.30
2019,10,25,09,24,9.50
2019,10,25,09,25,3.40
2019,10,25,09,26,2.10
2019,10,25,09,27,5.50
2019,10,25,09,28,5.60
2019,10,25,09,29,6.90
2019,10,25,09,30,5.40
2019,10,25,09,31,7.70
2019,10,25,09,32,6.70
2019,10,25,09,33,11.70
2019,10,25,09,34,8.60
2019,10,25,09,35,6.60
2019,10,25,09,36,6.20
2019,10,25,09,37,9.30
2019,10,25,09,38,5.50
2019,10,25,09,39,7.10
2019,10,25,09,40,3.40
2019,10,25,09,41,9.70
2019,10,25,09,42,2.20
2019,10,25,09,43,11.90
2019,10,25,09,44,6.70
2019,10,25,09,45,8.20
2019,10,25,09,46,5.70
2019,10,25,09,47,8.00
2019,10,25,09,48,10.10
2019,10,25,09,49,11.40
2019,10,25,09,50,11.70
2019,10,25,09,51,6.70
2019,10,25,09,52,7.30
2019,10,25,09,53,9.80
2019,10,25,09,54,9.60
2019,10,25,09,55,4.50
2019,10,25,09,56,4.50
2019,10,25,09,57,3.90
2019,10,25,09,58,5.50
2019,10,25,09,59,4.00
2019,10,25,10,00,9.30
2019,10,25,10,01,5.00
2019,10,25,10,02,8.50
2019,10,25,10,03,7.40
2019,10,25,10,04,7.10
2019,10,25,10,05,5.30
2019,10,25,10,06,6.30
2019,10,25,10,07,0.70
2019,10,25,10,08,10.30
2019,10,25,10,09,5.90
2019,10,25,10,10,4.80
2019,10,25,10,11,9.50
2019,10,25,10,12,4.70
2019,10,25,10,13,3.10
2019,10,25,10,14,9.80
2019,10,25,10,15,1.60
2019,10,25,10,16,4.00
2019,10,25,10,17,0.40
2019,10,25,10,18,9.20
2019,10,25,10,19,4.10
2019,10,25,10,20,10.10
2019,10,25,10,21,7.60
2019,10,25,10,22,5.10
2019,10,25,10,23,8.30
2019,10,25,10,24,5.10
2019,10,25,10,25,1.70
2019,10,25,10,26,1.40
2019,10,25,10,27,7.60
2019,10,25,10,28,7.20
2019,10,25,10,29,4.00
2019,10,25,10,30,7.80
2019,10,25,10,31,9.50
2019,10,25,10,32,6.30
2019,10,25,10,33,4.90
2019,10,25,10,34,1.60
2019,10,25,10,35,0.10
2019,10,25,10,36,5.20
2019,10,25,10,37,7.20
2019,10,25,10,38,12.30
2019,10,25,10,39,13.20
2019,10,25,10,40,12.20
2019,10,25,10,41,11.40
2019,10,25,10,42,7.30
2019,10,25,10,43,14.00
2019,10,25,10,44,6.70
2019,10,25,10,45,2.60
2019,10,25,10,46,4.50
2019,10,25,10,47,6.30
2019,10,25,10,48,6.40
2019,10,25,10,49,5.20
2019,10,25,10,50,5.60
2019,10,25,10,51,6.40
2019,10,25,10,52,7.50
2019,10,25,10,53,10.00
2019,10,25,10,54,8.60
2019,10,25,10,55,6.80
2019,10,25,10,56,8.10
2019,10,25,10,57,11.70
2019,10,25,10,58,10.60
2019,10,25,10,59,11.70
2019,10,25,11,00,7.50
2019,10,25,11,01,5.80
2019,10,25,11,02,8.80
2019,10,25,11,03,9.40
2019,10,25,11,04,17.30
2019,10,25,11,05,12.60
2019,10,25,11,06,9.40
2019,10,25,11,07,14.30
2019,10,25,11,08,19.90
2019,10,25,11,09,17.90
2019,10,25,11,10,9.30
2019,10,25,11,11,15.70
2019,10,25,11,12,3.70
2019,10,25,11,13,4.30
2019,10,25,11,14,7.00
2019,10,25,11,15,3.10
2019,10,25,11,16,9.10
2019,10,25,11,17,15.60
2019,10,25,11,18,9.10
2019,10,25,11,19,15.00
2019,10,25,11,20,3.50
2019,10,25,11,21,16.90
2019,10,25,11,22,14.00
2019,10,25,11,23,14.30
2019,10,25,11,24,9.70
2019,10,25,11,25,11.00
2019,10,25,11,26,13.10
2019,10,25,11,27,12.80
2019,10,25,11,28,17.30
2019,10,25,11,29,12.00
2019,10,25,11,30,5.40
2019,10,25,11,31,5.20
2019,10,25,11,32,18.40
2019,10,25,11,33,17.50
2019,10,25,11,34,8.60
2019,10,25,11,35,8.80
2019,10,25,11,36,13.20
2019,10,25,11,37,13.80
2019,10,25,11,38,6.60
2019,10,25,11,39,6.70
2019,10,25,11,40,12.50
2019,10,25,11,41,19.90
2019,10,25,11,42,15.90
2019,10,25,11,43,16.70
2019,10,25,11,44,6.60
2019,10,25,11,45,18.00
2019,10,25,11,46,15.70
2019,10,25,11,47,25.60
2019,10,25,11,48,19.80
2019,10,25,11,49,6.70
2019,10,25,11,50,7.30
2019,10,25,11,51,12.90
2019,10,25,11,52,3.60
2019,10,25,11,53,11.20
2019,10,25,11,54,11.10
2019,10,25,11,55,7.80
2019,10,25,11,56,1.00
2019,10,25,11,57,14.40
2019,10,25,11,58,14.40
2019,10,25,11,59,10.80
2019,10,25,12,00,7.30
2019,10,25,12,01,10.10
2019,10,25,12,02,3.80
2019,10,25,12,03,8.20
2019,10,25,12,04,22.10
2019,10,25,12,05,4.70
2019,10,25,12,06,3.40
2019,10,25,12,07,3.70
2019,10,25,12,08,6.20
2019,10,25,12,09,13.80
2019,10,25,12,10,11.50
2019,10,25,12,11,12.30
2019,10,25,12,12,22.60
2019,10,25,12,13,16.20
2019,10,25,12,14,19.70
2019,10,25,12,15,13.10
2019,10,25,12,16,12.20
2019,10,25,12,17,15.40
2019,10,25,12,18,5.50
2019,10,25,12,19,4.40
2019,10,25,12,20,13.10
2019,10,25,12,21,14.30
2019,10,25,12,22,8.20
2019,10,25,12,23,16.00
2019,10,25,12,24,15.90
2019,10,25,12,25,10.50
2019,10,25,12,26,14.20
2019,10,25,12,27,10.70
2019,10,25,12,28,14.80
2019,10,25,12,29,4.60
2019,10,25,12,30,2.60
2019,10,25,12,31,9.90
2019,10,25,12,32,7.10
2019,10,25,12,33,19.80
2019,10,25,12,34,6.00
2019,10,25,12,35,10.00
2019,10,25,12,36,11.00
2019,10,25,12,37,8.70
2019,10,25,12,38,8.20
2019,10,25,12,39,12.00
2019,10,25,12,40,13.20
2019,10,25,12,41,19.10
2019,10,25,12,42,10.30
2019,10,25,12,43,12.90
2019,10,25,12,44,20.40
2019,10,25,12,45,12.30
2019,10,25,12,46,7.70
2019,10,25,12,47,14.20
2019,10,25,12,48,3.90
2019,10,25,12,49,5.50
2019,10,25,12,50,13.80
2019,10,25,12,51,13.40
2019,10,25,12,52,16.90
2019,10,25,12,53,12.70
2019,10,25,12,54,17.00
2019,10,25,12,55,16.50
2019,10,25,12,56,12.20
2019,10,25,12,57,5.20
2019,10,25,12,58,9.50
2019,10,25,12,59,8.60
2019,10,25,13,00,10.00
2019,10,25,13,01,13.90
2019,10,25,13,02,24.40
2019,10,25,13,03,14.80
2019,10,25,13,04,13.40
2019,10,25,13,05,10.10
2019,10,25,13,06,10.00
2019,10,25,13,07,11.70
2019,10,25,13,08,11.70
2019,10,25,13,09,7.80
2019,10,25,13,10,15.30
2019,10,25,13,11,11.40
2019,10,25,13,12,12.80
2019,10,25,13,13,7.20
2019,10,25,13,14,5.20
2019,10,25,13,15,12.90
2019,10,25,13,16,14.10
2019,10,25,13,17,19.10
2019,10,25,13,18,15.60
2019,10,25,13,19,11.70
2019,10,25,13,20,8.10
2019,10,25,13,21,3.80
2019,10,25,13,22,6.90
2019,10,25,13,23,6.30
2019,10,25,13,24,18.20
2019,10,25,13,25,6.90
2019,10,25,13,26,20.10
2019,10,25,13,27,3.50
2019,10,25,13,28,5.30
2019,10,25,13,29,9.30
2019,10,25,13,30,19.10
2019,10,25,13,31,3.90
2019,10,25,13,32,16.80
2019,10,25,13,33,9.00
2019,10,25,13,34,11.60
2019,10,25,13,35,7.40
2019,10,25,13,36,2.70
2019,10,25,13,37,0.60
2019,10,25,13,38,7.50
2019,10,25,13,39,9.50
2019,10,25,13,40,11.30
2019,10,25,13,41,14.70
2019,10,25,13,42,15.20
2019,10,25,13,43,11.40
2019,10,25,13,44,15.40
2019,10,25,13,45,5.40
2019,10,25,13,46,23.20
2019,10,25,13,47,18.10
2019,10,25,13,48,6.50
2019,10,25,13,49,8.40
2019,10,25,13,50,6.20
2019,10,25,13,51,14.20
2019,10,25,13,52,9.40
2019,10,25,13,53,13.80
2019,10,25,13,54,21.20
2019,10,25,13,55,12.30
2019,10,25,13,56,18.30
2019,10,25,13,57,15.80
2019,10,25,13,58,12.50
2019,10,25,13,59,13.60
2019,10,25,14,00,10.70
2019,10,25,14,01,6.60
2019,10,25,14,02,14.10
2019,10,25,14,03,13.10
2019,10,25,14,04,19.90
2019,10,25,14,05,13.50
2019,10,25,14,06,16.30
2019,10,25,14,07,12.80
2019,10,25,14,08,9.80
2019,10,25,14,09,15.40
2019,10,25,14,10,20.40
2019,10,25,14,11,10.20
2019,10,25,14,12,14.20
2019,10,25,14,13,13.70
2019,10,25,14,14,9.20
2019,10,25,14,15,11.40
2019,10,25,14,16,7.70
2019,10,25,14,17,10.20
2019,10,25,14,18,14.10
2019,10,25,14,19,18.10
2019,10,25,14,20,13.00
2019,10,25,14,21,17.30
2019,10,25,14,22,23.50
2019,10,25,14,23,18.30
2019,10,25,14,24,7.30
2019,10,25,14,25,10.20
2019,10,25,14,26,12.60
2019,10,25,14,27,10.30
2019,10,25,14,28,10.00
2019,10,25,14,29,10.20
2019,10,25,14,30,11.10
2019,10,25,14,31,11.80
2019,10,25,14,32,17.20
2019,10,25,14,33,7.30
2019,10,25,14,34,9.50
2019,10,25,14,35,8.50
2019,10,25,14,36,7.60
2019,10,25,14,37,14.40
2019,10,25,14,38,11.20
2019,10,25,14,39,15.90
2019,10,25,14,40,4.20
2019,10,25,14,41,5.70
2019,10,25,14,42,5.60
2019,10,25,14,43,3.80
2019,10,25,14,44,6.90
2019,10,25,14,45,7.90
2019,10,25,14,46,6.30
2019,10,25,14,47,7.30
2019,10,25,14,48,23.80
2019,10,25,14,49,11.10
2019,10,25,14,50,10.60
2019,10,25,14,51,14.10
2019,10,25,14,52,8.00
2019,10,25,14,53,4.30
2019,10,25,14,54,9.50
2019,10,25,14,55,13.40
2019,10,25,14,56,10.50
2019,10,25,14,57,11.50
2019,10,25,14,58,8.90
2019,10,25,14,59,5.00
2019,10,25,15,00,7.20
2019,10,25,15,01,12.20
2019,10,25,15,02,13.50
2019,10,25,15,03,9.80
2019,10,25,15,04,4.30
2019,10,25,15,05,3.60
2019,10,25,15,06,15.00
2019,10,25,15,07,9.30
2019,10,25,15,08,19.30
2019,10,25,15,09,19.60
2019,10,25,15,10,12.00
2019,10,25,15,11,15.70
2019,10,25,15,12,13.00
2019,10,25,15,13,13.70
2019,10,25,15,14,19.40
2019,10,25,15,15,5.80
2019,10,25,15,16,10.00
2019,10,25,15,17,14.70
2019,10,25,15,18,24.70
2019,10,25,15,19,19.40
2019,10,25,15,20,12.90
2019,10,25,15,21,22.40
2019,10,25,15,22,19.30
2019,10,25,15,23,13.10
2019,10,25,15,24,14.60
2019,10,25,15,25,17.20
2019,10,25,15,26,15.90
2019,10,25,15,27,9.40
2019,10,25,15,28,9.90
2019,10,25,15,29,14.50
2019,10,25,15,30,22.40
2019,10,25,15,31,19.00
2019,10,25,15,32,11.00
2019,10,25,15,33,17.20
2019,10,25,15,34,15.00
2019,10,25,15,35,15.90
2019,10,25,15,36,18.10
2019,10,25,15,37,20.10
2019,10,25,15,38,16.80
2019,10,25,15,39,15.90
2019,10,25,15,40,15.10
2019,10,25,15,41,23.40
2019,10,25,15,42,12.30
2019,10,25,15,43,22.10
2019,10,25,15,44,10.30
2019,10,25,15,45,23.20
2019,10,25,15,46,13.10
2019,10,25,15,47,13.10
2019,10,25,15,48,10.20
2019,10,25,15,49,10.90
2019,10,25,15,50,23.50
2019,10,25,15,51,10.00
2019,10,25,15,52,20.30
2019,10,25,15,53,16.30
2019,10,25,15,54,11.80
2019,10,25,15,55,16.00
2019,10,25,15,56,8.50
2019,10,25,15,57,13.40
2019,10,25,15,58,16.20
2019,10,25,15,59,9.20
2019,10,25,16,00,6.40
2019,10,25,16,01,13.10
2019,10,25,16,02,7.80
2019,10,25,16,03,9.30
2019,10,25,16,04,23.70
2019,10,25,16,05,14.50
2019,10,25,16,06,10.60
2019,10,25,16,07,22.50
2019,10,25,16,08,19.00
2019,10,25,16,09,10.70
2019,10,25,16,10,18.30
2019,10,25,16,11,22.90
2019,10,25,16,12,17.60
2019,10,25,16,13,17.20
2019,10,25,16,14,12.40
2019,10,25,16,15,10.50
2019,10,25,16,16,14.50
2019,10,25,16,17,13.80
2019,10,25,16,18,20.50
2019,10,25,16,19,17.00
2019,10,25,16,20,21.10
2019,10,25,16,21,8.50
2019,10,25,16,22,7.60
2019,10,25,16,23,16.20
2019,10,25,16,24,16.20
2019,10,25,16,25,22.60
2019,10,25,16,26,6.40
2019,10,25,16,27,8.50
2019,10,25,16,28,19.10
2019,10,25,16,29,16.00
2019,10,25,16,30,24.90
2019,10,25,16,31,16.30
2019,10,25,16,32,22.50
2019,10,25,16,33,14.80
2019,10,25,16,34,5.90
2019,10,25,16,35,5.30
2019,10,25,16,36,14.10
2019,10,25,16,37,19.00
2019,10,25,16,38,16.90
2019,10,25,16,39,15.70
2019,10,25,16,40,18.50
2019,10,25,16,41,11.10
2019,10,25,16,42,8.00
2019,10,25,16,43,10.80
2019,10,25,16,44,8.40
2019,10,25,16,45,21.60
2019,10,25,16,46,14.70
2019,10,25,16,47,5.20
2019,10,25,16,48,16.40
2019,10,25,16,49,7.30
2019,10,25,16,50,11.10
2019,10,25,16,51,5.40
2019,10,25,16,52,4.90
2019,10,25,16,53,10.60
2019,10,25,16,54,12.90
2019,10,25,16,55,15.00
2019,10,25,16,56,14.60
2019,10,25,16,57,15.60
2019,10,25,16,58,20.90
2019,10,25,16,59,16.20
2019,10,25,17,00,11.00
2019,10,25,17,01,13.40
2019,10,25,17,02,9.20
2019,10,25,17,03,14.20
2019,10,25,17,04,8.50
2019,10,25,17,05,10.60
2019,10,25,17,06,24.30
2019,10,25,17,07,21.10
2019,10,25,17,08,12.80
2019,10,25,17,09,16.90
2019,10,25,17,10,19.70
2019,10,25,17,11,14.10
2019,10,25,17,12,5.60
2019,10,25,17,13,12.80
2019,10,25,17,14,16.40
2019,10,25,17,15,7.50
2019,10,25,17,16,4.80
2019,10,25,17,17,11.60
2019,10,25,17,18,16.80
2019,10,25,17,19,17.00
2019,10,25,17,20,10.80
2019,10,25,17,21,17.60
2019,10,25,17,22,15.00
2019,10,25,17,23,10.90
2019,10,25,17,24,10.40
2019,10,25,17,25,9.20
2019,10,25,17,26,12.60
2019,10,25,17,27,15.50
2019,10,25,17,28,9.90
2019,10,25,17,29,7.00
2019,10,25,17,30,12.00
2019,10,25,17,31,14.20
2019,10,25,17,32,13.90
2019,10,25,17,33,20.40
2019,10,25,17,34,13.40
2019,10,25,17,35,9.70
2019,10,25,17,36,8.60
2019,10,25,17,37,11.70
2019,10,25,17,38,9.10
2019,10,25,17,39,10.00
2019,10,25,17,40,15.40
2019,10,25,17,41,14.00
2019,10,25,17,42,17.40
2019,10,25,17,43,12.90
2019,10,25,17,44,15.50
2019,10,25,17,45,12.10
2019,10,25,17,46,7.10
2019,10,25,17,47,15.30
2019,10,25,17,48,16.00
2019,10,25,17,49,7.00
2019,10,25,17,50,14.70
2019,10,25,17,51,18.10
2019,10,25,17,52,23.80